Location: Aldenham
(51.6667°N, 0.3500°W)
Time: 00:58:58
(UTC+00:00)

Vanguard 2 - Pass Details

Date: 27 February 2026
Orbit: 553 x 2896 km, 32.9° (Epoch: 7 March)

Event Time Altitude Azimuth Distance (km) Brightness Sun altitude
Exits shadow 06:09:09 - 244° (WSW) 3,921 10.6 -7.3°
Reaches altitude 10° 06:14:07 10° 214° (SSW) 2,710 10.1 -6.5°
Maximum altitude 06:15:15 11° 203° (SSW) 2,562 10.0 -6.3°
Drops below altitude 10° 06:16:20 10° 192° (SSW) 2,495 10.1 -6.2°
Sets 06:20:52 0° 152° (SSE) 3,033 11.1 -5.5°
